Location: Saint-Palais-sur-Mer
(45.6429°N, 1.0859°W)
Time: 01:33:28
(UTC+02:00)

Oscar 11 - Visible Passes

Search period start: 24 April 2024 00:00
Search period end: 04 May 2024 00:00
Orbit: 604 x 613 km, 97.7° (Epoch: 23 April)

Date Brightness Start Highest point End Pass type
(mag) Time Alt. Az. Time Alt. Az. Time Alt. Az.
24 Apr 9.3 05:08:00 10° NE 05:11:25 22° E 05:14:48 10° SE visible
25 Apr 8.8 05:21:34 10° NNE 05:25:24 31° E 05:29:12 10° SSE visible
26 Apr 8.2 05:35:15 10° NNE 05:39:21 43° E 05:43:25 10° S visible
27 Apr 7.6 05:49:00 10° NNE 05:53:16 61° E 05:57:29 10° S visible
28 Apr 7.1 06:02:50 10° NNE 06:07:09 86° ESE 06:11:26 10° SSW visible
29 Apr 9.9 04:42:51 10° ENE 04:44:38 12° E 04:46:23 10° ESE visible
29 Apr 7.1 06:16:43 10° N 06:21:00 68° WNW 06:25:14 10° SSW visible
30 Apr 9.7 04:55:48 10° NE 04:58:38 17° E 05:01:27 10° SE visible
01 May 9.2 05:09:09 10° NE 05:12:36 23° E 05:16:02 10° SSE visible
02 May 8.7 05:22:40 10° NNE 05:26:32 32° E 05:30:22 10° SSE visible
03 May 8.1 05:36:18 10° NNE 05:40:26 44° E 05:44:31 10° S visible
